Погода Соболево

Погода Соболево : погода сейчас, прогноз погоды и архив. Всё, что Вы хотите узнать о погоде Соболево!

Поиск расширенной информации на нашем сайте:

Другие новости

Новости СМИ2

Главная страница сайта

Новости сайта

03.07.2017

Напоминаем, что на нашем специализированном сайте Метеоцентр.Азия вы можете получить высокодетализированные автоматические прогнозы погоды по пунктам России, СНГ и мира в авиационном формате (включающие направление и скорость ветра, видимость, явления погоды, количество и форму облачности, нижнюю и верхнюю границу облачности).


Погода Соболево - сегодня

Время (UTC), дата Ветер
(°,м/с) 
Видим.   Явления Облачность Т
(°С)
Тd
(°С)
f(%) Тe
(°С)
Pmin
(гПа)
dP
(гПа)
Po
(мм)
O2
(г/м3)
Тmin Tmax R s Состояние
почвы
03 19.11.17 150 (ЮВ) 9-16{25}  20000 м    10/10 600 м 
[Sc]
+4.1 +0.9 80 1002.2  -3.3  749  297           
06 19.11.17 140 (ЮВ) 7-13{19}  10 км  слаб. ливневой дождь  10/10 300 м кучево-дожд. 
[Cb cap]
+3.9 +1.4 84 +1  1000.6  -1.6  748  297           
09 19.11.17 120 (ЮВ) 7-14{15}  10 км  ливневой дождь  10/10 300 м кучево-дожд. 
[Cb cap]
+5 +0.4 72 +2  994.8  -5.8  744  294    +5.6     
12 19.11.17 120 (ЮВ) 6-12{14}  10 км  слаб. ливневой дождь  10/10 300 м кучево-дожд. 
[Cb cap]
+5.9 +0.4 68 +4  989  -5.8  740  292           
15 19.11.17 140 (ЮВ) 6-12{14}  10 км  слаб. ливневой дождь  10/10 300 м кучево-дожд. 
[Cb cap]
+6.2 +0.9 69 +4  986.3  -2.7  737  290           
18 19.11.17 190 (Ю) 7-12{22}  10 км  слаб. ливневой дождь  10/10 300 м кучево-дожд. 
[Cb cap]
+0.9 -0.4 91 -3  994.9  8.6  744  299           
21 19.11.17 210 (ЮЗ) 6-10{15}  10 км  в посл. час ливневой снег  10/10 300 м 
[Sc diur, vesp]
+0.5 -1.5 86 -3  999.2  4.2  747  301  -0.2    мокрый или
старый снег
50-90% 
00 20.11.17 230 (ЮЗ) 5{14}  10 км  в посл. час крупа{ливн. осадки}  9/9 300 м 
[Sc diur, vesp]
+0.1 -4 74 -3  1002  2.8  749  302  -0.8         
03 20.11.17 240 (ЮЗ) 4{12}  10 км  в посл. час ливневой снег  9/9 300 м 
[Sc diur, vesp]
-1 -4.3 78 -4  1003.6  1.5  750  304           
06 20.11.17 200 (Ю) 2{12}  10 км  в посл. час крупа{ливн. осадки}  4/4 600 м 
[Sc diur, vesp]
-3.6 -5.9 84 -5  1005.8  2.2  752  308           
09 20.11.17 140 (ЮВ) 10 км    4/4 600 м 
[Sc]
-3.9 -7.7 75 -5  1006.5  0.7  752  308    +0.6     
12 20.11.17 120 (ЮВ) 4000 м  слаб. ливневой снег  9/9 600 м кучево-дожд. 
[Cb cap]
-3.7 -6.9 78 -5  1006.6  0.1  753  308           
15 20.11.17 150 (ЮВ) 10 км  в посл. час ливневой снег  9/9 600 м 
[Sc diur, vesp]
-4.2 -5.2 93 -6  1006.2  -0.4  752  308           
18 20.11.17 140 (ЮВ) 10 км  в посл. час ливневой снег  10/10 600 м 
[Sc diur, vesp]
-3.3 -4 95 -5  1006.3  0.1  752  307           
21 20.11.17 190 (Ю) 6-10{16}  10 км  в посл. час ливневой снег  8/8 600 м 
[Sc diur, vesp]
-0.8 -7.4 61 -4  1007.2  0.9  753  305  -5.1    равномерный
сухой снег
100% 
00 21.11.17 170 (Ю) 5-11{12}  2000 м  ливневой снег  10/10 300 м кучево-дожд. 
[Cb cap]
-2.3 -3.3 93 -6  1008.1  0.9  754  307           
03 21.11.17 170 (Ю) 4{11}  4000 м  слаб. ливневой снег  10/10 300 м кучево-дожд. 
[Cb cap]
-2.8 -3.3 96 -6  1006.3  -1.8  752  307           
06 21.11.17 180 (Ю) 7-11{14}  4000 м  слаб. ливневой снег  10/10 300 м кучево-дожд. 
[Cb cap]
-2 -2.5 96 -6  1004.9  -1.4  751  305           
09 21.11.17 220 (ЮЗ) 9-14{15}  10 км  в посл. час ливневой снег  10/10 600 м 
[Sc]
-2 -7.6 65 -7  1006.5  1.6  752  306    -0.6     
12 21.11.17 230 (ЮЗ) 6-11{17}  2000 м  слаб. ливневой снег  10/10 300 м кучево-дожд. 
[Cb cap]
-4 -10.4 61 -8  1009.2  2.7  755  310           
15 21.11.17 240 (ЮЗ) 4{13}  10 км  {ливн. осадки}  10/10 600 м 
[Sc]
-4.4 -12.1 55 -8  1009.8  0.5  755  310           
18 21.11.17 250 (З) 4{10}  10 км  {ливн. осадки}  6/6 600 м 
[Sc]
-5.4 -10.1 69 -9  1010.2  0.5  755  311           
21 21.11.17 180 (Ю) 3{10}  10 км  позёмок{ливн. осадки}  9/9 300 м 
[Sc diur, vesp]
-6.3 -7.7 90 -9  1010.9  0.6  756  313  -6.3    13  равномерный
сухой снег
100% 
00 22.11.17 260 (З) 4{11}  10 км  позёмок{ливн. осадки}  9/9 300 м 
[Sc diur, vesp]
-5.4 -8.5 79 -9  1011.8  0.9  756  312           
03 22.11.17 250 (З) 4{10}  10 км  в посл. час крупа{ливн. осадки}  8/8 300 м 
[Sc diur, vesp]
-4 -9.4 66 -7  1012.6  0.8  757  311           
Время (UTC), дата Ветер
(°,м/с) 
Видим.   Явления Облачность Т
(°С)
Тd
(°С)
f(%) Тe
(°С)
Pmin
(гПа)
dP
(гПа)
Po
(мм)
O2
(г/м3)
Тmin Tmax R s Состояние
почвы

Для получения пояснительной информации подведите курсор к названию столбца.

ПОГОДА Соболево - архив

Всё, что Вы хотите узнать о погоде Соболево - удобно и подробно!

Выберите нужную дату (начиная с 1 января 2015* года) и нажмите кнопку "Найти".
Будут отображены архивные сводки погоды по пункту Соболево, начиная с указанной даты.


Отображать данные в формате CSV (для использования в таблицах Excel)


Внимание! Наш архив погоды предназначен исключительно для личного некоммерческого использования в познавательных целях. Если Вам необходимы официальные справки о состоянии погоды (для производственных, юридических, коммерческих и т.п. целей), обращайтесь в органы Росгидромета.

*Примечание: данная дата относится к архиву по метеостанциям СССР (Россия, СНГ, Балтия).
Архив по метеостанциям Зарубежной Европы и Азии (кроме Китая) хранится 10 дней, по другим регионам земного шара (Китай, Африка, Америка, Австралия, Океания) - 1 день.

Соболево - район местоположения метеостанции


Название, широта, долгота, высота метеостанции:
Соболево 54.30°ш. 155.93°д. 14 м над ур. моря [Российская Федерация]

Дополнительная информация

В oтличие oт бoльшинства пoгoдных сайтoв мы публикуем пoдрoбную метеoинфoрмацию в детальнoм прoфессиoнальнoм фoрмате.

Характеристики температуры и влажнoсти вoздуха измеряются на высoте 2 м в тени вдали oт зданий и деревьев.
Скoрoсть ветра измеряется на высoте 10 м (на урoвне рoста челoвека скoрoсть ветра ниже в 1.5-2 раза). Если метеoстанция нахoдится в гoрoде или в лесу, тo скoрoсть ветра занижена на 2-4 м/с пo сравнению с oткрытым местoм. Скoрoсть ветра над акватoриями крупных рек и oзёр, а также на вершинах хoлмoв на 2-5 м/с выше, чем в oбычных услoвиях.
Атмoсфернoе давление в разных тoчках местнoсти мoжет значительнo oтличаться oт давления на метеoстанции, в зависимoсти oт услoвий рельефа (при пoдъёме на 10 м давление пoнижается примернo на 1 мм рт.ст.).